Terug naar catalogus

STARLINK-5220

ActiefCommunicatieVLEO
NORAD 54760·PAYLOAD·🇺🇸 United States

Gelanceerd Dec 17, 2022 vanaf Cape Canaveral Space Force Station

Loading…

Volgende Passages (komende 24 uur)

TLE

VersSource: CelesTrak SupGP

Epoch: Sep 14, 2026, 20:56 UTC

1 54760C 22175C   26257.87270833  .00041372  00000+0  11834-2 0  2571
2 54760  53.1589 270.8247 0001245  89.6531  56.5709 15.35384663    16

Volg STARLINK-5220 in realtime met AllMySat

Download on the App Store